When you browse on this site, cookies collect data to enhance your experience and personalize the content and advertising you see.
Visit our Privacy Policy to learn more. By continuing to use the site, you agree to this use of cookies and data.
  • In Österreich
  • Länderverzeichnis
  • Für 7 Tage
  • Wassertemperatur
  • Wetterkarte
  • News
  • Widgets
  • user-avatar
    Anmelden

    Stündliche Wetter Zastav'je

    Heute, 23 August, Freitag

    Zeit Temperatur Niederschläge Wind Luftdruck Luftfeuchtigkeit
    00:00 +17°C° 0.2 mm 2 m/S 750 mmHg 90%
    01:00 +17°C° 0.2 mm 3 m/S 750 mmHg 91%
    02:00 +16°C° 0.2 mm 3 m/S 750 mmHg 93%
    03:00 +16°C° 0.3 mm 3 m/S 750 mmHg 93%
    04:00 +16°C° 0.3 mm 2 m/S 750 mmHg 94%
    05:00 +16°C° 0.3 mm 2 m/S 750 mmHg 95%
    06:00 +17°C° 0.1 mm 3 m/S 750 mmHg 92%
    07:00 +18°C° 0.1 mm 3 m/S 750 mmHg 88%
    08:00 +19°C° 0.1 mm 3 m/S 750 mmHg 85%
    09:00 +20°C° 0 mm 3 m/S 750 mmHg 79%
    10:00 +22°C° 0 mm 3 m/S 750 mmHg 72%
    11:00 +23°C° 0 mm 4 m/S 750 mmHg 66%
    12:00 +25°C° 0 mm 4 m/S 750 mmHg 63%
    13:00 +25°C° 0 mm 4 m/S 750 mmHg 60%
    14:00 +26°C° 0 mm 4 m/S 750 mmHg 57%
    15:00 +26°C° 0 mm 4 m/S 749 mmHg 58%
    16:00 +25°C° 0 mm 4 m/S 749 mmHg 60%
    17:00 +25°C° 0 mm 3 m/S 749 mmHg 61%
    18:00 +24°C° 0 mm 3 m/S 749 mmHg 65%
    19:00 +21°C° 0 mm 3 m/S 749 mmHg 70%
    20:00 +19°C° 0 mm 3 m/S 749 mmHg 75%
    21:00 +19°C° 0 mm 3 m/S 749 mmHg 76%
    22:00 +18°C° 0 mm 3 m/S 749 mmHg 77%
    23:00 +17°C° 0 mm 3 m/S 749 mmHg 78%

    Morgen, 24 August, Samstag

    Zeit Temperatur Niederschläge Wind Luftdruck Luftfeuchtigkeit
    00:00 +17°C° 0 mm 3 m/S 749 mmHg 78%
    01:00 +17°C° 0 mm 2 m/S 749 mmHg 78%
    02:00 +16°C° 0 mm 2 m/S 749 mmHg 78%
    03:00 +16°C° 0 mm 2 m/S 749 mmHg 76%
    04:00 +16°C° 0 mm 3 m/S 749 mmHg 75%
    05:00 +16°C° 0 mm 3 m/S 749 mmHg 74%
    06:00 +17°C° 0 mm 3 m/S 749 mmHg 73%
    07:00 +18°C° 0 mm 3 m/S 749 mmHg 72%
    08:00 +18°C° 0 mm 3 m/S 749 mmHg 71%
    09:00 +20°C° 0 mm 4 m/S 749 mmHg 67%
    10:00 +21°C° 0 mm 4 m/S 749 mmHg 64%
    11:00 +23°C° 0 mm 4 m/S 749 mmHg 60%
    12:00 +23°C° 0 mm 4 m/S 749 mmHg 58%
    13:00 +25°C° 0 mm 4 m/S 749 mmHg 55%
    14:00 +26°C° 0 mm 4 m/S 748 mmHg 53%
    15:00 +25°C° 0 mm 4 m/S 748 mmHg 55%
    16:00 +25°C° 0 mm 4 m/S 748 mmHg 56%
    17:00 +25°C° 0 mm 4 m/S 748 mmHg 58%
    18:00 +22°C° 0 mm 3 m/S 748 mmHg 62%
    19:00 +20°C° 0 mm 3 m/S 748 mmHg 66%
    20:00 +19°C° 0 mm 3 m/S 748 mmHg 70%
    21:00 +18°C° 0 mm 3 m/S 748 mmHg 69%
    22:00 +17°C° 0 mm 3 m/S 748 mmHg 68%
    23:00 +17°C° 0 mm 3 m/S 748 mmHg 68%

    übermorgen, 25 August, Sonntag

    Zeit Temperatur Niederschläge Wind Luftdruck Luftfeuchtigkeit
    00:00 +16°C° 0 mm 3 m/S 748 mmHg 68%
    01:00 +16°C° 0 mm 3 m/S 748 mmHg 69%
    02:00 +16°C° 0 mm 2 m/S 748 mmHg 69%
    03:00 +15°C° 0 mm 2 m/S 748 mmHg 70%
    04:00 +15°C° 0 mm 2 m/S 747 mmHg 70%
    05:00 +14°C° 0 mm 3 m/S 747 mmHg 71%
    06:00 +16°C° 0 mm 3 m/S 747 mmHg 70%
    07:00 +17°C° 0 mm 3 m/S 748 mmHg 68%
    08:00 +18°C° 0 mm 3 m/S 748 mmHg 67%
    09:00 +20°C° 0 mm 3 m/S 748 mmHg 63%
    10:00 +22°C° 0 mm 3 m/S 748 mmHg 59%
    11:00 +25°C° 0 mm 4 m/S 748 mmHg 55%
    12:00 +26°C° 0 mm 4 m/S 748 mmHg 53%
    13:00 +26°C° 0 mm 4 m/S 748 mmHg 51%
    14:00 +27°C° 0 mm 4 m/S 748 mmHg 49%
    15:00 +27°C° 0 mm 4 m/S 747 mmHg 51%
    16:00 +26°C° 0 mm 3 m/S 747 mmHg 53%
    17:00 +26°C° 0 mm 3 m/S 747 mmHg 55%
    18:00 +24°C° 0 mm 3 m/S 747 mmHg 60%
    19:00 +21°C° 0 mm 3 m/S 747 mmHg 65%
    20:00 +19°C° 0 mm 3 m/S 747 mmHg 69%
    21:00 +19°C° 0 mm 3 m/S 747 mmHg 70%
    22:00 +18°C° 0 mm 3 m/S 747 mmHg 70%
    23:00 +17°C° 0 mm 3 m/S 747 mmHg 70%

    26 August, Montag

    Zeit Temperatur Niederschläge Wind Luftdruck Luftfeuchtigkeit
    00:00 +17°C° 0 mm 3 m/S 747 mmHg 71%
    01:00 +16°C° 0 mm 3 m/S 747 mmHg 72%
    02:00 +16°C° 0 mm 3 m/S 747 mmHg 73%
    03:00 +16°C° 0 mm 3 m/S 747 mmHg 74%
    04:00 +14°C° 0 mm 3 m/S 747 mmHg 74%
    05:00 +14°C° 0 mm 3 m/S 747 mmHg 75%
    06:00 +16°C° 0 mm 3 m/S 747 mmHg 72%
    07:00 +18°C° 0 mm 3 m/S 747 mmHg 70%
    08:00 +19°C° 0 mm 3 m/S 747 mmHg 67%
    09:00 +21°C° 0 mm 4 m/S 747 mmHg 63%
    10:00 +23°C° 0 mm 4 m/S 747 mmHg 59%
    11:00 +26°C° 0 mm 4 m/S 747 mmHg 55%
    12:00 +27°C° 0 mm 4 m/S 747 mmHg 53%
    13:00 +27°C° 0 mm 4 m/S 747 mmHg 50%
    14:00 +28°C° 0 mm 4 m/S 746 mmHg 48%
    15:00 +28°C° 0 mm 4 m/S 746 mmHg 50%
    16:00 +28°C° 0 mm 3 m/S 746 mmHg 53%
    17:00 +27°C° 0 mm 3 m/S 746 mmHg 55%
    18:00 +25°C° 0 mm 3 m/S 746 mmHg 60%
    19:00 +22°C° 0 mm 3 m/S 746 mmHg 64%
    20:00 +20°C° 0 mm 3 m/S 745 mmHg 68%
    21:00 +20°C° 0 mm 3 m/S 746 mmHg 71%
    22:00 +19°C° 0 mm 3 m/S 746 mmHg 73%
    23:00 +19°C° 0 mm 3 m/S 746 mmHg 76%

    27 August, Dienstag

    Zeit Temperatur Niederschläge Wind Luftdruck Luftfeuchtigkeit
    00:00 +18°C° 0 mm 3 m/S 746 mmHg 77%
    01:00 +18°C° 0 mm 3 m/S 746 mmHg 79%
    02:00 +17°C° 0 mm 3 m/S 746 mmHg 80%
    03:00 +17°C° 0 mm 3 m/S 745 mmHg 81%
    04:00 +17°C° 0 mm 3 m/S 745 mmHg 83%
    05:00 +16°C° 0 mm 2 m/S 745 mmHg 84%
    06:00 +17°C° 0 mm 2 m/S 745 mmHg 80%
    07:00 +19°C° 0 mm 2 m/S 745 mmHg 76%
    08:00 +20°C° 0 mm 2 m/S 746 mmHg 72%
    09:00 +22°C° 0 mm 3 m/S 746 mmHg 66%
    10:00 +25°C° 0 mm 3 m/S 746 mmHg 59%
    11:00 +27°C° 0 mm 3 m/S 746 mmHg 53%
    12:00 +28°C° 0 mm 3 m/S 746 mmHg 50%
    13:00 +29°C° 0 mm 3 m/S 746 mmHg 47%
    14:00 +29°C° 0 mm 2 m/S 745 mmHg 44%
    15:00 +29°C° 0 mm 2 m/S 745 mmHg 45%
    16:00 +29°C° 0 mm 2 m/S 745 mmHg 47%
    17:00 +29°C° 0 mm 2 m/S 745 mmHg 49%
    18:00 +27°C° 0 mm 2 m/S 745 mmHg 55%
    19:00 +25°C° 0 mm 2 m/S 745 mmHg 62%
    20:00 +21°C° 0 mm 3 m/S 745 mmHg 68%
    21:00 +20°C° 0 mm 3 m/S 745 mmHg 71%
    22:00 +20°C° 0 mm 3 m/S 746 mmHg 74%
    23:00 +19°C° 0 mm 3 m/S 746 mmHg 77%

    28 August, Mittwoch

    Zeit Temperatur Niederschläge Wind Luftdruck Luftfeuchtigkeit
    00:00 +19°C° 0 mm 3 m/S 746 mmHg 78%
    01:00 +18°C° 0 mm 2 m/S 746 mmHg 80%
    02:00 +18°C° 0 mm 2 m/S 746 mmHg 81%
    03:00 +18°C° 0 mm 2 m/S 746 mmHg 82%
    04:00 +17°C° 0 mm 3 m/S 746 mmHg 82%
    05:00 +17°C° 0 mm 3 m/S 746 mmHg 82%
    06:00 +19°C° 0 mm 3 m/S 746 mmHg 78%
    07:00 +20°C° 0 mm 3 m/S 746 mmHg 74%
    08:00 +21°C° 0 mm 3 m/S 746 mmHg 70%
    09:00 +24°C° 0 mm 3 m/S 746 mmHg 65%
    10:00 +26°C° 0 mm 4 m/S 746 mmHg 59%
    11:00 +28°C° 0 mm 4 m/S 746 mmHg 54%
    12:00 +28°C° 0 mm 4 m/S 746 mmHg 52%
    13:00 +29°C° 0 mm 4 m/S 746 mmHg 50%
    14:00 +29°C° 0 mm 4 m/S 746 mmHg 48%
    15:00 +29°C° 0 mm 4 m/S 745 mmHg 51%
    16:00 +28°C° 0 mm 4 m/S 745 mmHg 53%
    17:00 +28°C° 0 mm 3 m/S 745 mmHg 55%
    18:00 +26°C° 0 mm 4 m/S 745 mmHg 60%
    19:00 +23°C° 0 mm 4 m/S 745 mmHg 66%
    20:00 +21°C° 0 mm 4 m/S 745 mmHg 71%
    21:00 +20°C° 0 mm 4 m/S 745 mmHg 74%
    22:00 +20°C° 0 mm 4 m/S 745 mmHg 77%
    23:00 +19°C° 0 mm 4 m/S 745 mmHg 80%
    Mehr zeigen